This is the latest recevied weather packets stored in our database for station/object K4AMF. If no packets are shown the sender has not sent any weather packets the latest 10 day(s).
| Time | Temp. | Humidity | Pressure | Rain* | Wind** | Luminosity | Snow |
|---|---|---|---|---|---|---|---|
| 1778169937 | 30° C | 63% | 1016.1 hPa | 0 mm | - | 751 W/m² | - |
| 1778169633 | 30° C | 65% | 1016.1 hPa | 0 mm | - | 734 W/m² | - |
| 1778169329 | 30° C | 64% | 1016.3 hPa | 0 mm | - | 764 W/m² | - |
| 1778169026 | 30.56° C | 64% | 1016.4 hPa | 0 mm | - | 780 W/m² | - |
| 1778168723 | 30° C | 66% | 1016.3 hPa | 0 mm | - | 600 W/m² | - |
| 1778168420 | 29.44° C | 67% | 1016.4 hPa | 0 mm | - | 630 W/m² | - |
| 1778168117 | 30° C | 67% | 1016.2 hPa | 0 mm | - | 608 W/m² | - |
| 1778167813 | 29.44° C | 67% | 1016.3 hPa | 0 mm | - | 757 W/m² | - |
| 1778167509 | 29.44° C | 65% | 1016.4 hPa | 0 mm | - | 436 W/m² | - |
| 1778167205 | 29.44° C | 65% | 1016.2 hPa | 0 mm | - | 548 W/m² | - |
| 1778166902 | 30° C | 65% | 1016 hPa | 0 mm | - | 485 W/m² | - |
| 1778166599 | 29.44° C | 67% | 1016 hPa | 0 mm | - | 614 W/m² | - |
| 1778166296 | 29.44° C | 66% | 1016 hPa | 0 mm | - | 393 W/m² | - |
| 1778165992 | 28.89° C | 67% | 1015.7 hPa | 0 mm | - | 340 W/m² | - |
| 1778165687 | 28.89° C | 68% | 1015.7 hPa | 0 mm | - | 529 W/m² | - |
| 1778165385 | 28.89° C | 68% | 1015.5 hPa | 0 mm | - | 736 W/m² | - |
| 1778165081 | 28.33° C | 70% | 1015.2 hPa | 0 mm | - | 668 W/m² | - |
| 1778164778 | 27.78° C | 71% | 1015.3 hPa | 0 mm | - | 714 W/m² | - |
| 1778164476 | 27.78° C | 71% | 1015.2 hPa | 0 mm | - | 692 W/m² | - |
| 1778164172 | 27.22° C | 72% | 1015.3 hPa | 0 mm | - | 419 W/m² | - |
| 1778163868 | 27.22° C | 72% | 1015.4 hPa | 0 mm | - | 627 W/m² | - |
| 1778163566 | 27.78° C | 72% | 1015.7 hPa | 0 mm | - | 620 W/m² | - |
| 1778163262 | 27.22° C | 72% | 1015.8 hPa | 0 mm | - | 567 W/m² | - |
| 1778162959 | 27.22° C | 73% | 1015.7 hPa | 0 mm | - | 490 W/m² | - |
| 1778162655 | 26.67° C | 73% | 1015.9 hPa | 0 mm | - | 583 W/m² | - |
* Rain latest hour (hover to see other rain measurements)
** Current wind speed in m/s (hover to see current wind gust speed)